TimeEST,TemperatureF,Dew PointF,Humidity,Sea Level PressureIn,VisibilityMPH,Wind Direction,Wind SpeedMPH,Gust SpeedMPH,PrecipitationIn,Events,Conditions,WindDirDegrees,DateUTC
12:15 AM,51.8,50.0,94,30.24,10.0,Calm,Calm,-,N/A,,Clear,0,2012-12-01 05:15:00
12:35 AM,51.8,50.0,94,30.24,10.0,Calm,Calm,-,N/A,,Clear,0,2012-12-01 05:35:00
12:55 AM,51.8,51.8,100,30.24,10.0,Calm,Calm,-,N/A,,Clear,0,2012-12-01 05:55:00
1:15 AM,51.8,51.8,100,30.24,10.0,Calm,Calm,-,N/A,,Clear,0,2012-12-01 06:15:00
1:35 AM,51.8,50.0,94,30.24,10.0,Calm,Calm,-,N/A,,Clear,0,2012-12-01 06:35:00
1:55 AM,51.8,51.8,100,30.23,10.0,Calm,Calm,-,N/A,,Clear,0,2012-12-01 06:55:00
2:15 AM,51.8,51.8,100,30.24,10.0,Calm,Calm,-,N/A,,Clear,0,2012-12-01 07:15:00
2:35 AM,51.8,50.0,94,30.23,10.0,Calm,Calm,-,N/A,,Clear,0,2012-12-01 07:35:00
2:55 AM,51.8,51.8,100,30.23,10.0,Calm,Calm,-,N/A,,Clear,0,2012-12-01 07:55:00
3:15 AM,50.0,50.0,100,30.23,10.0,Calm,Calm,-,N/A,,Clear,0,2012-12-01 08:15:00
3:55 AM,50.0,50.0,100,30.22,10.0,Calm,Calm,-,N/A,,Clear,0,2012-12-01 08:55:00
4:15 AM,50.0,50.0,100,30.22,7.0,Calm,Calm,-,N/A,,Clear,0,2012-12-01 09:15:00
4:35 AM,50.0,50.0,100,30.22,7.0,Calm,Calm,-,N/A,,Clear,0,2012-12-01 09:35:00
4:55 AM,50.0,50.0,100,30.22,7.0,Calm,Calm,-,N/A,,Clear,0,2012-12-01 09:55:00
5:15 AM,50.0,50.0,100,30.23,10.0,Calm,Calm,-,N/A,,Clear,0,2012-12-01 10:15:00
5:35 AM,50.0,50.0,100,30.23,10.0,Calm,Calm,-,N/A,,Clear,0,2012-12-01 10:35:00
6:15 AM,50.0,50.0,100,30.24,10.0,Calm,Calm,-,N/A,,Scattered Clouds,0,2012-12-01 11:15:00
6:35 AM,50.0,50.0,100,30.25,7.0,Calm,Calm,-,N/A,,Scattered Clouds,0,2012-12-01 11:35:00
7:35 AM,50.0,50.0,100,30.27,7.0,Calm,Calm,-,N/A,,Clear,0,2012-12-01 12:35:00
8:15 AM,57.2,57.2,100,30.28,10.0,NNE,3.5,-,N/A,,Clear,30,2012-12-01 13:15:00
8:35 AM,60.8,57.2,88,30.28,10.0,NNE,5.8,-,N/A,,Clear,30,2012-12-01 13:35:00
8:55 AM,62.6,57.2,82,30.29,10.0,NNE,6.9,-,N/A,,Clear,30,2012-12-01 13:55:00
9:15 AM,64.4,57.2,77,30.29,10.0,NNE,5.8,-,N/A,,Clear,20,2012-12-01 14:15:00
9:35 AM,66.2,59.0,78,30.29,10.0,NE,4.6,-,N/A,,Clear,40,2012-12-01 14:35:00
10:15 AM,69.8,59.0,68,30.30,10.0,NNE,5.8,-,N/A,,Clear,20,2012-12-01 15:15:00
10:35 AM,71.6,59.0,64,30.29,10.0,East,8.1,-,N/A,,Clear,80,2012-12-01 15:35:00
11:15 AM,73.4,59.0,61,30.29,10.0,NNE,10.4,-,N/A,,Clear,20,2012-12-01 16:15:00
11:35 AM,75.2,57.2,53,30.29,10.0,ENE,5.8,-,N/A,,Clear,60,2012-12-01 16:35:00
12:15 PM,77.0,55.4,47,30.27,10.0,North,5.8,-,N/A,,Mostly Cloudy,360,2012-12-01 17:15:00
12:35 PM,77.0,55.4,47,30.25,10.0,East,6.9,-,N/A,,Scattered Clouds,80,2012-12-01 17:35:00
12:55 PM,78.8,55.4,44,30.24,10.0,NNE,8.1,-,N/A,,Scattered Clouds,30,2012-12-01 17:55:00
1:15 PM,78.8,55.4,44,30.24,10.0,NNE,6.9,-,N/A,,Scattered Clouds,20,2012-12-01 18:15:00
1:35 PM,75.2,55.4,50,30.23,10.0,ENE,5.8,-,N/A,,Scattered Clouds,60,2012-12-01 18:35:00
1:55 PM,77.0,55.4,47,30.22,10.0,ENE,11.5,-,N/A,,Scattered Clouds,70,2012-12-01 18:55:00
2:15 PM,77.0,55.4,47,30.22,10.0,East,8.1,-,N/A,,Mostly Cloudy,90,2012-12-01 19:15:00
2:35 PM,78.8,55.4,44,30.21,10.0,ENE,6.9,-,N/A,,Scattered Clouds,60,2012-12-01 19:35:00
3:15 PM,78.8,55.4,44,30.21,10.0,ENE,9.2,-,N/A,,Clear,70,2012-12-01 20:15:00
3:35 PM,77.0,57.2,50,30.21,10.0,NE,12.7,-,N/A,,Mostly Cloudy,50,2012-12-01 20:35:00
3:55 PM,73.4,55.4,53,30.22,10.0,ENE,6.9,-,N/A,,Overcast,60,2012-12-01 20:55:00
4:15 PM,75.2,57.2,53,30.22,10.0,East,9.2,-,N/A,,Overcast,80,2012-12-01 21:15:00
4:55 PM,73.4,57.2,57,30.22,10.0,East,8.1,-,N/A,,Mostly Cloudy,90,2012-12-01 21:55:00
5:15 PM,71.6,55.4,57,30.23,10.0,East,4.6,-,N/A,,Mostly Cloudy,80,2012-12-01 22:15:00
5:35 PM,71.6,57.2,60,30.23,10.0,Calm,Calm,-,N/A,,Overcast,0,2012-12-01 22:35:00
5:55 PM,71.6,57.2,60,30.24,10.0,ENE,3.5,-,N/A,,Overcast,60,2012-12-01 22:55:00
6:15 PM,69.8,57.2,64,30.24,10.0,NE,4.6,-,N/A,,Overcast,50,2012-12-01 23:15:00
6:35 PM,69.8,60.8,73,30.24,10.0,NE,8.1,-,N/A,,Overcast,50,2012-12-01 23:35:00
6:55 PM,69.8,60.8,73,30.24,10.0,NE,5.8,-,N/A,,Overcast,50,2012-12-01 23:55:00
7:15 PM,68.0,60.8,78,30.25,10.0,NE,6.9,-,N/A,,Mostly Cloudy,50,2012-12-02 00:15:00
7:35 PM,68.0,60.8,78,30.25,10.0,NE,5.8,-,N/A,,Scattered Clouds,50,2012-12-02 00:35:00
7:55 PM,66.2,60.8,83,30.26,10.0,NE,5.8,-,N/A,,Scattered Clouds,40,2012-12-02 00:55:00
8:15 PM,64.4,60.8,88,30.26,10.0,NNE,4.6,-,N/A,,Scattered Clouds,30,2012-12-02 01:15:00
8:35 PM,64.4,60.8,88,30.26,10.0,NE,3.5,-,N/A,,Clear,40,2012-12-02 01:35:00
8:55 PM,62.6,60.8,94,30.27,10.0,NNE,4.6,-,N/A,,Clear,30,2012-12-02 01:55:00
9:15 PM,62.6,60.8,94,30.27,10.0,NE,3.5,-,N/A,,Scattered Clouds,50,2012-12-02 02:15:00
9:35 PM,62.6,59.0,88,30.27,10.0,Calm,Calm,-,N/A,,Scattered Clouds,0,2012-12-02 02:35:00
9:55 PM,60.8,59.0,94,30.27,10.0,Calm,Calm,-,N/A,,Clear,0,2012-12-02 02:55:00
10:15 PM,60.8,59.0,94,30.27,10.0,Calm,Calm,-,N/A,,Clear,0,2012-12-02 03:15:00
10:35 PM,60.8,60.8,100,30.27,10.0,Calm,Calm,-,N/A,,Clear,0,2012-12-02 03:35:00
10:55 PM,60.8,60.8,100,30.27,10.0,Calm,Calm,-,N/A,,Clear,0,2012-12-02 03:55:00
11:15 PM,59.0,59.0,100,30.27,10.0,Calm,Calm,-,N/A,,Clear,0,2012-12-02 04:15:00
11:35 PM,60.8,59.0,94,30.27,7.0,Calm,Calm,-,N/A,,Clear,0,2012-12-02 04:35:00
11:55 PM,59.0,59.0,100,30.28,7.0,Calm,Calm,-,N/A,,Clear,0,2012-12-02 04:55:00